Weather History for Fort Leonard Wood, MO

Change the Weather History Date:

Saturday, February 18, 2012

  Actual Average Record
Temperature  
Mean Temperature 40 °F -  
Max Temperature 44 °F 46 °F 66 °F (1997)
Min Temperature 36 °F 32 °F 5 °F (2006)
Degree Days  
Heating Degree Days 25    
Moisture  
Dew Point 32 °F    
Average Humidity 69    
Maximum Humidity 90    
Minimum Humidity 50    
Precipitation  
Precipitation 0.00 in - - ()
Sea Level Pressure  
Sea Level Pressure 30.11 in    
Wind  
Wind Speed 6 mph (NNE)    
Max Wind Speed 12 mph    
Max Gust Speed 18 mph    
Visibility 10 miles    
Events      
Averages and records for this station are not official NWS values.
T = Trace of Precipitation, MM = Missing Value Source: NWS Daily Summary

Daily Weather History Graph

Daily Weather History Graph

Search for Another Location

Airport:

Trip Planner

Search our weather history database for the weather conditions in past years. The results will help you decide how hot, cold, wet, or windy it might be!

Date:

Astronomy

Feb. 18, 2012 Rise Set
Actual Time 6:55 AM CST 5:50 PM CST
Civil Twilight 6:28 AM CST 6:17 PM CST
Nautical Twilight 5:57 AM CST 6:47 PM CST
Astronomical Twilight 5:27 AM CST 7:18 PM CST
Moon 4:32 AM CST (2/18) 2:50 PM CST (2/18)
Length of Visible Light 11h 48m
Length of Day
10h 55m
Waning Crescent, 11% of the Moon is Illuminated
Feb 18
Waning Crescent
Feb 21
New
Feb 29
First Quarter
Mar 8
Full
Mar 14
Last Quarter

Hourly Weather History & Observations

Time (CST) Temp. Windchill Dew Point Humidity Pressure Visibility Wind Dir Wind Speed Gust Speed Precip Events Conditions
12:55 AM 43.5 °F 40.9 °F 40.3 °F 88% 30.11 in 10.0 mi SW 4.6 mph - N/A   Mostly Cloudy
1:32 AM 44.6 °F 42.2 °F 41.0 °F 87% 30.11 in 10.0 mi WSW 4.6 mph - N/A   Light Drizzle
1:51 AM 44.6 °F 43.1 °F 41.0 °F 87% 30.11 in 10.0 mi SW 3.5 mph - N/A   Mostly Cloudy
1:55 AM 44.1 °F - 41.2 °F 90% 30.11 in 10.0 mi Calm Calm - 0.00 in   Scattered Clouds
2:41 AM 44.6 °F 43.1 °F 41.0 °F 87% 30.10 in 10.0 mi WNW 3.5 mph - N/A   Light Drizzle
2:49 AM 44.6 °F 41.4 °F 41.0 °F 87% 30.10 in 10.0 mi NNW 5.8 mph - N/A   Mostly Cloudy
2:55 AM 44.2 °F 42.7 °F 41.5 °F 90% 30.10 in 10.0 mi NNW 3.5 mph - 0.00 in   Mostly Cloudy
3:55 AM 43.0 °F 38.2 °F 40.3 °F 90% 30.08 in 10.0 mi North 8.1 mph - N/A   Overcast
4:55 AM 40.8 °F 35.0 °F 34.3 °F 78% 30.10 in 10.0 mi North 9.2 mph - N/A   Overcast
5:55 AM 39.2 °F 33.0 °F 31.3 °F 73% 30.11 in 10.0 mi NNE 9.2 mph - N/A   Overcast
6:55 AM 37.6 °F 30.0 °F 30.0 °F 74% 30.13 in 10.0 mi North 11.5 mph 18.4 mph N/A   Overcast
7:55 AM 36.9 °F 30.7 °F 29.7 °F 75% 30.15 in 10.0 mi NNE 8.1 mph - N/A   Overcast
8:55 AM 36.7 °F 31.2 °F 28.9 °F 74% 30.17 in 10.0 mi NE 6.9 mph - N/A   Overcast
9:55 AM 38.1 °F 31.7 °F 28.0 °F 67% 30.17 in 10.0 mi NNE 9.2 mph - N/A   Scattered Clouds
10:55 AM 39.4 °F 34.5 °F 28.2 °F 64% 30.17 in 10.0 mi NNE 6.9 mph - N/A   Overcast
11:55 AM 40.6 °F 36.0 °F 28.6 °F 62% 30.14 in 10.0 mi NNE 6.9 mph - N/A   Overcast
12:55 PM 41.7 °F 39.8 °F 28.4 °F 59% 30.11 in 10.0 mi NE 3.5 mph - N/A   Overcast
1:55 PM 43.2 °F 37.9 °F 26.8 °F 52% 30.08 in 10.0 mi NE 9.2 mph - N/A   Overcast
2:55 PM 42.4 °F 37.5 °F 26.2 °F 53% 30.07 in 10.0 mi NE 8.1 mph - N/A   Overcast
3:55 PM 42.4 °F 38.1 °F 26.8 °F 54% 30.08 in 10.0 mi NNE 6.9 mph - N/A   Overcast
4:55 PM 42.3 °F 39.4 °F 25.0 °F 50% 30.08 in 10.0 mi NNE 4.6 mph - N/A   Overcast
5:55 PM 41.5 °F 38.6 °F 25.3 °F 53% 30.07 in 10.0 mi NE 4.6 mph - N/A   Overcast
6:55 PM 40.8 °F 37.8 °F 25.9 °F 55% 30.09 in 10.0 mi NNE 4.6 mph - N/A   Overcast
7:55 PM 40.8 °F 36.2 °F 25.3 °F 54% 30.09 in 10.0 mi NNE 6.9 mph - N/A   Overcast
8:55 PM 40.3 °F 37.1 °F 25.3 °F 55% 30.10 in 10.0 mi NE 4.6 mph - N/A   Overcast
9:55 PM 39.9 °F 34.5 °F 25.7 °F 57% 30.09 in 10.0 mi NE 8.1 mph - N/A   Overcast
10:55 PM 39.2 °F 34.2 °F 27.5 °F 63% 30.09 in 10.0 mi NE 6.9 mph - N/A   Overcast
11:55 PM 38.3 °F 33.2 °F 28.2 °F 67% 30.07 in 10.0 mi NE 6.9 mph - N/A   Overcast